User: anonymous
Location: SAPM � Hemmingford
(45.0500°N, 73.5833°W)
Time: 10:21:42
(UTC-04:00)
Language:

Cosmos 1603 - Orbit

View from above orbital plane
View from above orbital plane
View from above satellite
View from above satellite

Ground track
Ground track

The orbit data is extracted from the following two-line orbital elements,

1 15333U 84106A   14208.82403649 -.00000221  00000-0 -91311-4 0   419
2 15333 071.0262 142.0967 0019632 007.1412 057.3123 14.13939109539086
Epoch (UTC): 27 July 2014 19:46:36
Eccentricity: 0.0019632
inclination: 71.0262°
perigee height: 832 km
apogee height: 860 km
right ascension of ascending node: 142.0967°
argument of perigee: 7.1412°
revolutions per day: 14.13939109
mean anomaly at epoch: 57.3123°
orbit number at epoch: 53908

The dashed part of the orbit path shows where the satellite is in the earth's shadow,  

DLR